Terug naar catalogus

STARLINK-30479

ActiefCommunicatieVLEO
NORAD 57898·PAYLOAD·🇺🇸 United States

Gelanceerd Sep 20, 2023 vanaf Cape Canaveral Space Force Station

Loading…

Volgende Passages (komende 24 uur)

TLE

VersSource: CelesTrak SupGP

Epoch: Sep 15, 2026, 02:19 UTC

1 57898C 23146H   26258.09701389  .00044401  00000+0  16084-2 0  2584
2 57898  43.0027 324.5880 0001777 259.0089  77.3266 15.27551554    12

Volg STARLINK-30479 in realtime met AllMySat

Download on the App Store